Preview of NWS' New Version of Forecast
This preview is not operational and should not be used for support decisions.

Regional Weather Roundup (RWR)

Issued by National Weather Service (NWS)

                            
000
ASUS45 KBOU 181810
RWRCO 

WEATHER ROUNDUP FOR COLORADO
NATIONAL WEATHER SERVICE DENVER/BOULDER CO
1200 PM MDT THU JUL 18 2019

NOTE: "FAIR" INDICATES FEW OR NO CLOUDS BELOW 12000 FEET WITH NO
SIGNIFICANT WEATHER AND/OR OBSTRUCTIONS TO VISIBILITY.

COZ001>005-013-030-031-181900-
...NORTHWEST COLORADO...
  
CITY           SKY/WX    TMP DP  RH WIND       PRES   REMARKS
CRAIG          FAIR      86  32  14 SW20G28   30.12F                  
HAYDEN         FAIR      82  33  17 W15G21    30.16F                  
MEEKER         FAIR      85  30  13 SW16G25   30.15F                  
RANGELY        FAIR      88  29  12 W6        30.06F                  
RABBIT EARS PA NOT AVBL                                               
STEAMBOAT SPGS FAIR      77  38  24 CALM      30.18F                  
WALDEN         NOT AVBL                                               
$$

COZ006>008-011-181900-
...WEST CENTRAL VALLEYS...
  
CITY           SKY/WX    TMP DP  RH WIND       PRES   REMARKS
GRAND JUNCTION FAIR      90  31  12 NW8       30.06F                  
MONTROSE       FAIR      88  35  15 W9G20     30.15F                  
EAGLE          FAIR      83  35  18 W12G18    30.19F                  
RIFLE          FAIR      84  35  17 VRB5      30.12F                  
DELTA          FAIR      91  29  10 SE5       30.11F                  
NUCLA          FAIR      86  27  11 SW10G17   30.20F                  
$$

COZ017>023-064>068-181900-
...SOUTHWEST COLORADO...
  
CITY           SKY/WX    TMP DP  RH WIND       PRES   REMARKS
DURANGO        FAIR      85  34  16 W13G23    30.24F                  
CORTEZ         FAIR      85  32  15 CALM      30.20F                  
PAGOSA SPRINGS FAIR      81  33  17 SW14      30.31F                  
TELLURIDE      FAIR      73  32  21 SW9G20    30.44F                  
WOLF CREEK PAS NOT AVBL                                               
$$

COZ009-010-012-014-032>034-037-058>063-181900-
...CENTRAL COLORADO...
  
CITY           SKY/WX    TMP DP  RH WIND       PRES   REMARKS
ASPEN          FAIR      80  29  15 NW7G15    30.28S                  
BUENA VISTA    FAIR      81  22  11 W10G28    30.28F                  
COPPER MTN     FAIR      63  23  22 SW17G33   30.62S                  
BERTHOUD PASS  FAIR      54  41  62 MISG      30.63S                  
COTTONWOOD PAS NOT AVBL                                               
GUNNISON       FAIR      75  40  28 SW6       30.30F                  
GRANBY         NOT AVBL                                               
KREMMLING      FAIR      81  32  17 W17G24    30.24F                  
LEADVILLE      FAIR      72  26  18 MISG      30.43F                  
SALIDA         FAIR      86  25  10 W22G33    30.32F                  
SUNLIGHT       FAIR      64  34  32 S7G22     30.55S                  
WILKERSON PASS FAIR      68  21  17 SW12G21   30.57S                  
$$

COZ069>075-181900-
...SAN LUIS VALLEY/SANGRE DE CRISTO MOUNTAINS...
  
CITY           SKY/WX    TMP DP  RH WIND       PRES   REMARKS
ALAMOSA        FAIR      80  31  16 MISG      30.27F                  
DEL NORTE      FAIR      80  37  21 W8        30.30F                  
LA VETA PASS   NOT AVBL                                               
SAGUACHE       FAIR      79  39  24 CALM      30.30F                  
$$

COZ035-036-038>040-181900-
...NORTHERN COLORADO FRONT RANGE...
  
CITY           SKY/WX    TMP DP  RH WIND       PRES   REMARKS
DENVER INTL AP PTSUNNY   93  27   9 S9        30.00F                  
AURORA         PTSUNNY   91  31  12 SW5       30.03F                  
FRONT RANGE AP MOSUNNY   93  28  10 W14       30.02F                  
ERIE MUNI ARPT FAIR      94  28   9 SW5       30.02F                  
BOULDER MUN AP FAIR      91  36  14 W10G25    29.98F                  
CENTENNIAL     PTSUNNY   91  31  11 VRB5      30.05F                  
BROOMFIELD     MOSUNNY   91  32  12 SE3       30.02F                  
FORT COLLINS   FAIR      95  37  13 S16       29.95F                  
LONGMONT       FAIR      96  32  10 SE5       29.97F                  
$$

COZ041-046-047-076>085-087-088-181900-
...PIKES PEAK/PALMER DIVIDE AND SOUTHERN FOOTHILLS...
  
CITY           SKY/WX    TMP DP  RH WIND       PRES   REMARKS
COLO. SPRINGS  PTSUNNY   92  29  10 S10G20    30.08F                  
A. F. ACADEMY  FAIR      89  23   9 NW10      30.10F                  
SCHRIEVER AFB  NOT AVBL                                               
CHEYENNE MTN   NOT AVBL                                               
ELLICOTT         N/A      1 N/A N/A SW9G21    30.08F WCI -14          
FALCON         FAIR      90  25   9 N7        30.16F                  
FORT CARSON    FAIR      92  25   9 E15       30.04F                  
LIMON          FAIR      93  34  12 W5        30.02F                  
MONUMENT HILL  FAIR      82  36  18 SW9G18    30.18F                  
CANON CITY     FAIR      99  32   9 W14G20    30.03F                  
WALSENBURG     NOT AVBL                                               
TRINIDAD       FAIR      95  33  11 W7        30.06F                  
$$

COZ042>045-048>051-090-091-181900-
...NORTHEAST COLORADO...
  
CITY           SKY/WX    TMP DP  RH WIND       PRES   REMARKS
GREELEY ARPT   FAIR      97  40  14 S12       29.94F                  
AKRON          FAIR      92  45  19 VRB5      29.95F                  
BURLINGTON     FAIR      98  49  18 N7        29.91F                  
WRAY           FAIR     100  36  10 NW3G17    29.85F                  
YUMA           FAIR      95  -6   2 N8        29.90F                  
STERLING       FAIR      97  48  19 W3        29.88F                  
HOLYOKE        FAIR      99  37  12 NW12G22   29.86F                  
FORT MORGAN    NOT AVBL                                               
$$

COZ086-089-092>099-181900-
...SOUTHEAST COLORADO...
  
CITY           SKY/WX    TMP DP  RH WIND       PRES   REMARKS
PUEBLO         FAIR      98  27   8 VRB3      29.95F                  
LA JUNTA       FAIR     101  37  11 NE5       29.93F                  
LAMAR          FAIR     100  53  20 E6        29.86F                  
SPRINGFIELD      N/A     97  46  17 N10G17    29.93F                  
$$